, TX

(GMT )
Brazos 451

Weather History for KBQX - December, 2013

Change the Weather History Date:

Wednesday, December 4, 2013

  Actual Average Record
Temperature  
Mean Temperature 73 °F -  
Max Temperature 75 °F - - ()
Min Temperature 71 °F - - ()
Cooling Degree Days 8    
Growing Degree Days 23 (Base 50)    
Moisture  
Dew Point 71 °F    
Average Humidity 92    
Maximum Humidity 100    
Minimum Humidity 88    
Precipitation  
Precipitation 0.00 in - - ()
Sea Level Pressure  
Sea Level Pressure 29.77 in    
Wind  
Wind Speed 13 mph (South)    
Max Wind Speed 17 mph    
Max Gust Speed -    
Visibility 3 miles    
Events      
Averages and records for this station are not official NWS values.
T = Trace of Precipitation, MM = Missing Value Source: NWS Daily Summary

Daily Weather History Graph

Daily Weather History Graph

Search for Another Location

Airport or City:

Trip Planner

Search our weather history database for the weather conditions in past years. The results will help you decide how hot, cold, wet, or windy it might be!

Date:

Astronomy

Dec. 04, 2013 Rise Set
Actual Time 7:00 AM CST 5:25 PM CST
Civil Twilight 6:34 AM CST 5:51 PM CST
Nautical Twilight 6:05 AM CST 6:20 PM CST
Astronomical Twilight 5:36 AM CST 6:49 PM CST
Moon 8:32 AM CST (12/4) 7:33 PM CST (12/4)
Length of Visible Light 11h 16m
Length of Day
10h 25m
Waxing Crescent, 4% of the Moon is Illuminated
Dec 4
Waxing Crescent
Dec 9
First Quarter
Dec 17
Full
Dec 25
Last Quarter
Jan 1
New

Hourly Weather History & Observations

Time (CST) Temp. Dew Point Humidity Pressure Visibility Wind Dir Wind Speed Gust Speed Precip Events Conditions
12:15 AM 71.6 °F 69.8 °F 94% 29.74 in 4.0 mi South 11.5 mph - N/A   Partly Cloudy
12:35 AM 71.6 °F 69.8 °F 94% 29.74 in 3.0 mi SSW 10.4 mph - N/A   Mist
12:55 AM 71.6 °F 69.8 °F 94% 29.74 in 3.0 mi South 10.4 mph - N/A   Mist
1:15 AM 71.6 °F 69.8 °F 94% 29.73 in 3.0 mi South 12.7 mph - N/A   Clear
1:35 AM 71.6 °F 69.8 °F 94% 29.74 in 3.0 mi South 10.4 mph - N/A   Partly Cloudy
1:55 AM 71.6 °F 69.8 °F 94% 29.73 in 3.0 mi South 11.5 mph - N/A   Partly Cloudy
2:15 AM 71.6 °F 69.8 °F 94% 29.73 in 3.0 mi South 15.0 mph - N/A   Clear
2:35 AM 71.6 °F 69.8 °F 94% 29.73 in 3.0 mi South 13.8 mph - N/A   Mist
2:55 AM 71.6 °F 69.8 °F 94% 29.72 in 3.0 mi South 15.0 mph - N/A   Clear
3:15 AM 71.6 °F 69.8 °F 94% 29.73 in 3.0 mi South 15.0 mph - N/A   Clear
3:35 AM 71.6 °F 69.8 °F 94% 29.73 in 3.0 mi South 13.8 mph - N/A   Clear
3:55 AM 73.4 °F 69.8 °F 88% 29.73 in 3.0 mi South 15.0 mph - N/A   Partly Cloudy
4:15 AM 73.4 °F 69.8 °F 88% 29.73 in 3.0 mi South 15.0 mph - N/A   Partly Cloudy
4:35 AM 73.4 °F 69.8 °F 88% 29.73 in 3.0 mi South 15.0 mph - N/A   Partly Cloudy
4:55 AM 73.4 °F 69.8 °F 88% 29.73 in 3.0 mi South 17.3 mph - N/A   Clear
5:15 AM 73.4 °F 69.8 °F 88% 29.73 in 3.0 mi South 16.1 mph - N/A   Clear
5:35 AM 73.4 °F 69.8 °F 88% 29.74 in 3.0 mi South 15.0 mph - N/A   Clear
5:55 AM 73.4 °F 69.8 °F 88% 29.74 in 3.0 mi South 13.8 mph - N/A   Partly Cloudy
6:15 AM 73.4 °F 69.8 °F 88% 29.75 in 3.0 mi South 15.0 mph - N/A   Partly Cloudy
6:35 AM 73.4 °F 69.8 °F 88% 29.75 in 3.0 mi South 15.0 mph - N/A   Partly Cloudy
6:55 AM 73.4 °F 69.8 °F 88% 29.76 in 2.5 mi South 13.8 mph - N/A   Clear
7:15 AM 71.6 °F 69.8 °F 94% 29.77 in 1.8 mi South 12.7 mph - N/A   Mostly Cloudy
7:35 AM 73.4 °F 69.8 °F 88% 29.78 in 1.8 mi South 13.8 mph - N/A   Mostly Cloudy
7:55 AM 73.4 °F 69.8 °F 88% 29.78 in 1.8 mi South 13.8 mph - N/A   Mostly Cloudy
8:15 AM 73.4 °F 69.8 °F 88% 29.79 in 1.5 mi South 12.7 mph - N/A   Mostly Cloudy
8:35 AM 73.4 °F 69.8 °F 88% 29.80 in 1.8 mi South 13.8 mph - N/A   Mostly Cloudy
8:55 AM 73.4 °F 69.8 °F 88% 29.80 in 1.8 mi South 13.8 mph - N/A   Mostly Cloudy
9:15 AM 73.4 °F 69.8 °F 88% 29.81 in 1.8 mi South 12.7 mph - N/A   Clear
9:35 AM 73.4 °F 69.8 °F 88% 29.82 in 1.8 mi South 11.5 mph - N/A   Clear
9:55 AM 73.4 °F 69.8 °F 88% 29.82 in 2.0 mi South 13.8 mph - N/A   Clear
10:15 AM 73.4 °F 69.8 °F 88% 29.82 in 2.0 mi South 12.7 mph - N/A   Clear
10:35 AM 73.4 °F 69.8 °F 88% 29.82 in 2.0 mi South 13.8 mph - N/A   Clear
10:55 AM 73.4 °F 69.8 °F 88% 29.82 in 2.0 mi South 13.8 mph - N/A   Clear
11:15 AM 73.4 °F 69.8 °F 88% 29.81 in 2.0 mi South 12.7 mph - N/A   Clear
11:35 AM 73.4 °F 69.8 °F 88% 29.81 in 2.0 mi South 11.5 mph - N/A   Clear
11:55 AM 73.4 °F 71.6 °F 94% 29.80 in 2.0 mi South 11.5 mph - N/A   Clear
12:15 PM 73.4 °F 69.8 °F 88% 29.79 in 2.0 mi South 12.7 mph - N/A   Clear
12:35 PM 73.4 °F 69.8 °F 88% 29.78 in 2.5 mi South 10.4 mph - N/A   Clear
12:55 PM 73.4 °F 71.6 °F 94% 29.77 in 2.5 mi South 10.4 mph - N/A   Clear
1:15 PM 73.4 °F 71.6 °F 94% 29.76 in 2.5 mi South 10.4 mph - N/A   Clear
1:35 PM 73.4 °F 71.6 °F 94% 29.75 in 2.5 mi South 12.7 mph - N/A   Clear
1:55 PM 73.4 °F 71.6 °F 94% 29.75 in 2.0 mi SSE 12.7 mph - N/A   Clear
2:15 PM 73.4 °F 71.6 °F 94% 29.74 in 2.0 mi SSE 11.5 mph - N/A   Scattered Clouds
2:35 PM 73.4 °F 71.6 °F 94% 29.75 in 2.0 mi SSE 8.1 mph - N/A   Overcast
2:55 PM 73.4 °F 71.6 °F 94% 29.75 in 2.0 mi SSE 6.9 mph - N/A   Overcast
3:15 PM 75.2 °F 71.6 °F 89% 29.75 in 2.0 mi SSE 8.1 mph - N/A   Overcast
3:35 PM 75.2 °F 71.6 °F 89% 29.75 in 2.5 mi SSE 4.6 mph - N/A   Overcast
3:55 PM 75.2 °F 71.6 °F 89% 29.75 in 2.5 mi Calm Calm - N/A   Mostly Cloudy
4:15 PM 75.2 °F 71.6 °F 89% 29.75 in 2.5 mi Variable 3.5 mph - N/A   Overcast
4:35 PM 75.2 °F 71.6 °F 89% 29.75 in 2.0 mi Variable 4.6 mph - N/A   Overcast
4:55 PM 75.2 °F 71.6 °F 89% 29.75 in 2.0 mi SSE 8.1 mph - N/A   Overcast
5:15 PM 73.4 °F 71.6 °F 94% 29.76 in 2.0 mi SSE 8.1 mph - N/A   Overcast
5:35 PM 73.4 °F 71.6 °F 94% 29.76 in 2.5 mi SSE 11.5 mph - N/A   Mist
5:55 PM 73.4 °F 71.6 °F 94% 29.77 in 3.0 mi SSE 12.7 mph - N/A   Mist
6:15 PM 73.4 °F 71.6 °F 94% 29.77 in 3.0 mi SSE 12.7 mph - N/A   Mist
6:35 PM 73.4 °F 71.6 °F 94% 29.77 in 3.0 mi SSE 16.1 mph - N/A   Mist
6:55 PM 75.2 °F 73.4 °F 94% 29.78 in 3.0 mi SSE 16.1 mph - N/A   Mist
7:15 PM 75.2 °F 73.4 °F 94% 29.78 in 3.0 mi SSE 15.0 mph - N/A   Mist
7:35 PM 73.4 °F 71.6 °F 94% 29.79 in 3.0 mi SSE 12.7 mph - N/A   Mist
7:55 PM 73.4 °F 71.6 °F 94% 29.79 in 3.0 mi SSE 12.7 mph - N/A   Mist
8:15 PM 73.4 °F 71.6 °F 94% 29.80 in 3.0 mi South 12.7 mph - N/A   Mist
8:35 PM 73.4 °F 71.6 °F 94% 29.80 in 3.0 mi South 15.0 mph - N/A   Mist
8:55 PM 75.2 °F 73.4 °F 94% 29.81 in 3.0 mi SSE 16.1 mph - N/A   Mist
9:15 PM 73.4 °F 73.4 °F 100% 29.80 in 3.0 mi South 17.3 mph - N/A   Mist
9:35 PM 73.4 °F 71.6 °F 94% 29.80 in 3.0 mi South 17.3 mph - N/A   Mist
9:55 PM 73.4 °F 71.6 °F 94% 29.81 in 3.0 mi South 17.3 mph - N/A   Mist
10:15 PM 73.4 °F 71.6 °F 94% 29.82 in 3.0 mi South 16.1 mph - N/A   Mist
10:35 PM 73.4 °F 71.6 °F 94% 29.82 in 3.0 mi South 16.1 mph - N/A   Mist
10:55 PM 75.2 °F 73.4 °F 94% 29.82 in 3.0 mi South 15.0 mph - N/A   Mist
11:15 PM 73.4 °F 71.6 °F 94% 29.83 in 3.0 mi South 12.7 mph - N/A   Mist
11:35 PM 73.4 °F 71.6 °F 94% 29.83 in 3.0 mi South 15.0 mph - N/A   Mist
11:55 PM 73.4 °F 71.6 °F 94% 29.83 in 3.0 mi South 12.7 mph - N/A   Mist